• MPC Preparation (Info)

  • MPEC 2023-F225 : 2023 FS10

    The following Minor Planet Electronic Circular may be linked-to from your own Web pages, but must not otherwise be redistributed electronically.

    A form allowing access to any MPEC is at the bottom of this page.


    Read MPEC 2023-F224 Read MPEC 2023-F226


    M.P.E.C. 2023-F225                               Issued 2023 March 30, 02:19 UT
    
         The Minor Planet Electronic Circulars contain information on unusual
             minor planets, routine data on comets and natural satellites,
             and occasional editorial announcements.  They are published
        on behalf of Division F of the International Astronomical Union by the
              Minor Planet Center, Smithsonian Astrophysical Observatory,
                              Cambridge, MA 02138, U.S.A.
    			  
                 Prepared using the Tamkin Foundation Computer Network
    
                                  MPC@CFA.HARVARD.EDU
                URL https://www.minorplanetcenter.net/    ISSN 1523-6714
    
                                    2023 FS10                                
    
    
    Observations:
         K23F10S* C2023 03 28.38579513 32 37.847+30 00 56.79         21.69wUEF225F52
         K23F10S  C2023 03 28.39722213 32 38.693+30 01 12.08         21.92wUEF225F52
         K23F10S  C2023 03 28.42018913 32 40.291+30 01 42.28         21.70wUEF225F52
         K23F10S  C2023 03 28.51923213 32 46.806+30 03 38.62         21.82GVEF225F51
         K23F10S  C2023 03 28.51987213 32 46.833+30 03 39.14         21.54GVEF225F51
         K23F10S KC2023 03 29.30046213 34 33.431+30 18 25.52         21.43GVEF225V06
         K23F10S KC2023 03 29.30300413 34 33.611+30 18 28.66         21.77GVEF225V06
         K23F10S KC2023 03 29.30554513 34 33.848+30 18 31.68         21.04GVEF225V06
         K23F10S 3C2023 03 29.58644813 35 03.706+30 24 32.43         21.28GVEF225T14
         K23F10S 3C2023 03 29.58942113 35 03.977+30 24 35.32         21.24GVEF225T14
         K23F10S 3C2023 03 29.59198113 35 04.211+30 24 37.80         21.33GVEF225T14
         K23F10S 3C2023 03 29.59396213 35 04.396+30 24 39.69         21.29GVEF225T14
         K23F10S 3C2023 03 29.59494913 35 04.487+30 24 40.59         21.27GVEF225T14
    
    Observer details:
    F51 Pan-STARRS 1, Haleakala.  Observers J. Bulger, K. Chambers, T. Lowe, A.
        Schultz, I. Smith.  Measurers S. Chastel, J. Fairlamb, M. Huber, Y.
        Ramanjooloo, R. Wainscoat, R. Weryk.  1.8-m Ritchey-Chretien + CCD.
    F52 Pan-STARRS 2, Haleakala.  Observers J. Bulger, T. Lowe, A. Schultz, I.
        Smith.  Measurers K. Chambers, S. Chastel, T. de Boer, J. Fairlamb, H.
        Gao, M. Huber, C.-C. Lin, E. Magnier, Y. Ramanjooloo, R. Wainscoat, R.
        Weryk.  1.8-m Ritchey-Chretien + CCD.
    T14 Canada-France-Hawaii Telescope, Maunakea.  Observers R. Wainscoat, L.
        Wells, E. Bertin.  Measurers R. Weryk, R. Wainscoat.  3.6-m Canada-France-
        Hawaii Telescope + CCD.
    V06 Catalina Sky Survey-Kuiper.  Observers J. B. Fazekas, D. C. Fuls.
        Measurers E. J. Christensen, D. Fay, J. B. Fazekas, D. C. Fuls, A. R.
        Gibbs, A. D. Grauer, H. Groeller, J. K. Hogan, R. A. Kowalski, S. M.
        Larson, G. J. Leonard, D. Rankin, R. L. Seaman, A. Serrano, F. C. Shelly,
        K. W. Wierzchos.  1.55-m reflector + 1K CCD.
    
    Orbital elements:
    2023 FS10                                                Earth MOID = 0.0061 AU
    Epoch 2023 Feb. 25.0 TT = JDT 2460000.5                 Alexandersen            
    M 295.67650              (2000.0)            P               Q                  
    n   0.71368882     Peri.  228.12029     -0.28667277     +0.95659339             
    a   1.2401193      Node    25.36414     -0.83874856     -0.22416406             
    e   0.2535948      Incl.    7.02889     -0.46294663     -0.18622449             
    P   1.38           H   26.10          G   0.15           U   8                  
    Residuals in seconds of arc
    230328 F52  0.0   0.0     230329 V06  0.2+  0.2+    230329 T14  0.0   0.0
    230328 F52  0.1+  0.1-    230329 V06  0.2-  0.0     230329 T14  0.0   0.0
    230328 F52  0.2-  0.1+    230329 V06  0.1+  0.3-    230329 T14  0.0   0.0
    230328 F51  0.1+  0.1+    230329 T14  0.0   0.0
    230328 F51  0.1-  0.0     230329 T14  0.0   0.0
    
    Ephemeris:
    2023 FS10                a,e,i = 1.24, 0.25, 7                   q = 0.9256
    Date    TT    R. A. (2000) Decl.     Delta      r    Elong.  Phase     V
    2023 02 28    13 00 07.7 +23 41 07   0.2097  1.1656   143.5    30.4    24.4
    ...
    2023 03 15    13 15 15.9 +26 38 51   0.1306  1.1052   146.3    30.0    23.2
    ...
    2023 03 23    13 23 59.9 +28 30 46   0.09257 1.0739   145.4    31.8    22.4
    ...
    2023 03 29    13 33 50.1 +30 12 35   0.06545 1.0513   143.2    34.6    21.7
    2023 03 30    13 36 10.0 +30 32 55   0.06102 1.0476   142.7    35.3    21.6
    2023 03 31    13 38 50.1 +30 54 53   0.05662 1.0440   142.1    36.0    21.4
    ...
    2023 04 06    14 10 46.3 +34 18 44   0.03071 1.0227   136.0    42.8    20.2
    ...
    2023 04 14    22 02 03.2 +07 01 41   0.0098440.9965    50.7   128.9    21.7
    ...
    2023 04 29    00 46 51.4 -23 17 24   0.07210 0.9565    44.3   132.7    26.3
    
    M. P. C. Staff               (C) Copyright 2023 MPC           M.P.E.C. 2023-F225
    


    Read MPEC 2023-F224 Read MPEC 2023-F226


    MPEC number:

    Enter an MPEC number in one of the following forms:

    • 1997-B01 (the full form)
    • J97B01 (the packed version of the full form)
    • B01 (the abbreviated form)